When you browse on this site, cookies collect data to enhance your experience and personalize the content and advertising you see.
Visit our Privacy Policy to learn more. By continuing to use the site, you agree to this use of cookies and data.
  • En España
  • Lista de países
  • Para 7 días
  • Temperatura del agua
  • El tiempo en el mapa
  • Informadores
  • user-avatar
    Iniciar sesión

    Tiempo cada hora Mauritius

    Hoy, 9 Diciembre, Lunes

    Tiempo Temperatura Precipitaciones Viento Presión Humedad
    00:00 +26°C° 0 mm 3 mps 722 mmHg 79%
    01:00 +25°C° 0 mm 2 mps 721 mmHg 81%
    02:00 +25°C° 0 mm 2 mps 721 mmHg 82%
    03:00 +25°C° 0 mm 2 mps 721 mmHg 83%
    04:00 +25°C° 0 mm 2 mps 721 mmHg 84%
    05:00 +25°C° 0 mm 3 mps 721 mmHg 84%
    06:00 +25°C° 0 mm 3 mps 721 mmHg 83%
    07:00 +26°C° 0 mm 3 mps 721 mmHg 83%
    08:00 +27°C° 0 mm 3 mps 722 mmHg 76%
    09:00 +28°C° 0 mm 3 mps 722 mmHg 69%
    10:00 +29°C° 0 mm 3 mps 722 mmHg 62%
    11:00 +30°C° 0 mm 3 mps 722 mmHg 61%
    12:00 +30°C° 0 mm 4 mps 722 mmHg 60%
    13:00 +32°C° 0 mm 4 mps 721 mmHg 59%
    14:00 +30°C° 0 mm 3 mps 721 mmHg 62%
    15:00 +29°C° 0 mm 3 mps 721 mmHg 65%
    16:00 +29°C° 0 mm 3 mps 721 mmHg 69%
    17:00 +28°C° 0.1 mm 3 mps 721 mmHg 71%
    18:00 +28°C° 0.1 mm 2 mps 721 mmHg 74%
    19:00 +27°C° 0.1 mm 2 mps 722 mmHg 77%
    20:00 +27°C° 0 mm 2 mps 722 mmHg 78%
    21:00 +27°C° 0 mm 2 mps 722 mmHg 79%
    22:00 +26°C° 0 mm 2 mps 723 mmHg 81%
    23:00 +26°C° 0 mm 2 mps 722 mmHg 82%

    Mañana, 10 Diciembre, Martes

    Tiempo Temperatura Precipitaciones Viento Presión Humedad
    00:00 +26°C° 0 mm 1 mps 722 mmHg 83%
    01:00 +26°C° 0 mm 1 mps 721 mmHg 83%
    02:00 +25°C° 0 mm 1 mps 721 mmHg 84%
    03:00 +25°C° 0 mm 1 mps 721 mmHg 85%
    04:00 +25°C° 0 mm 1 mps 721 mmHg 86%
    05:00 +25°C° 0 mm 1 mps 721 mmHg 83%
    06:00 +26°C° 0 mm 1 mps 722 mmHg 81%
    07:00 +26°C° 0 mm 1 mps 722 mmHg 78%
    08:00 +27°C° 0 mm 1 mps 722 mmHg 72%
    09:00 +28°C° 0 mm 2 mps 722 mmHg 67%
    10:00 +30°C° 0 mm 2 mps 723 mmHg 61%
    11:00 +30°C° 0 mm 2 mps 722 mmHg 61%
    12:00 +30°C° 0 mm 3 mps 722 mmHg 62%
    13:00 +30°C° 0 mm 3 mps 722 mmHg 62%
    14:00 +29°C° 0 mm 3 mps 721 mmHg 65%
    15:00 +29°C° 0 mm 3 mps 721 mmHg 68%
    16:00 +28°C° 0 mm 3 mps 721 mmHg 71%
    17:00 +28°C° 0 mm 3 mps 721 mmHg 73%
    18:00 +27°C° 0 mm 3 mps 721 mmHg 76%
    19:00 +27°C° 0 mm 2 mps 722 mmHg 78%
    20:00 +27°C° 0 mm 3 mps 722 mmHg 79%
    21:00 +26°C° 0 mm 3 mps 722 mmHg 81%
    22:00 +26°C° 0 mm 3 mps 723 mmHg 82%
    23:00 +26°C° 0 mm 3 mps 722 mmHg 83%

    Pasado mañana, 11 Diciembre, Miércoles

    Tiempo Temperatura Precipitaciones Viento Presión Humedad
    00:00 +26°C° 0 mm 3 mps 722 mmHg 84%
    01:00 +26°C° 0 mm 3 mps 721 mmHg 85%
    02:00 +25°C° 0 mm 3 mps 721 mmHg 86%
    03:00 +25°C° 0 mm 3 mps 721 mmHg 87%
    04:00 +25°C° 0 mm 3 mps 721 mmHg 88%
    05:00 +25°C° 0 mm 3 mps 721 mmHg 86%
    06:00 +26°C° 0 mm 3 mps 721 mmHg 84%
    07:00 +26°C° 0 mm 4 mps 722 mmHg 82%
    08:00 +27°C° 0 mm 4 mps 722 mmHg 78%
    09:00 +28°C° 0 mm 4 mps 722 mmHg 74%
    10:00 +29°C° 0 mm 4 mps 722 mmHg 70%
    11:00 +29°C° 0.1 mm 4 mps 722 mmHg 68%
    12:00 +29°C° 0.1 mm 4 mps 722 mmHg 66%
    13:00 +30°C° 0.1 mm 4 mps 722 mmHg 64%
    14:00 +29°C° 0.4 mm 4 mps 722 mmHg 66%
    15:00 +29°C° 0.4 mm 4 mps 721 mmHg 68%
    16:00 +29°C° 0.4 mm 4 mps 721 mmHg 70%
    17:00 +28°C° 0.3 mm 4 mps 721 mmHg 72%
    18:00 +28°C° 0.3 mm 4 mps 722 mmHg 75%
    19:00 +27°C° 0.3 mm 4 mps 722 mmHg 78%
    20:00 +27°C° 0.1 mm 4 mps 722 mmHg 79%
    21:00 +26°C° 0.1 mm 4 mps 722 mmHg 81%
    22:00 +26°C° 0.1 mm 4 mps 722 mmHg 82%
    23:00 +26°C° 0 mm 4 mps 722 mmHg 83%

    12 Diciembre, Jueves

    Tiempo Temperatura Precipitaciones Viento Presión Humedad
    00:00 +26°C° 0 mm 4 mps 722 mmHg 84%
    01:00 +26°C° 0 mm 4 mps 721 mmHg 85%
    02:00 +25°C° 0 mm 4 mps 721 mmHg 85%
    03:00 +25°C° 0 mm 3 mps 721 mmHg 85%
    04:00 +25°C° 0 mm 3 mps 721 mmHg 85%
    05:00 +25°C° 0 mm 3 mps 721 mmHg 84%
    06:00 +26°C° 0 mm 3 mps 721 mmHg 82%
    07:00 +26°C° 0 mm 3 mps 722 mmHg 80%
    08:00 +27°C° 0 mm 3 mps 722 mmHg 76%
    09:00 +28°C° 0 mm 4 mps 722 mmHg 71%
    10:00 +29°C° 0 mm 4 mps 722 mmHg 66%
    11:00 +29°C° 0.1 mm 4 mps 722 mmHg 65%
    12:00 +29°C° 0.1 mm 5 mps 722 mmHg 65%
    13:00 +30°C° 0.1 mm 5 mps 721 mmHg 64%
    14:00 +29°C° 0.1 mm 5 mps 721 mmHg 65%
    15:00 +29°C° 0.1 mm 5 mps 721 mmHg 66%
    16:00 +29°C° 0.1 mm 5 mps 720 mmHg 67%
    17:00 +28°C° 0.2 mm 4 mps 721 mmHg 70%
    18:00 +27°C° 0.2 mm 4 mps 721 mmHg 73%
    19:00 +27°C° 0.2 mm 4 mps 721 mmHg 76%
    20:00 +27°C° 0 mm 4 mps 721 mmHg 78%
    21:00 +26°C° 0 mm 4 mps 721 mmHg 79%
    22:00 +26°C° 0 mm 4 mps 722 mmHg 81%
    23:00 +26°C° 0 mm 4 mps 721 mmHg 81%

    13 Diciembre, Viernes

    Tiempo Temperatura Precipitaciones Viento Presión Humedad
    00:00 +26°C° 0 mm 4 mps 721 mmHg 82%
    01:00 +25°C° 0 mm 4 mps 721 mmHg 82%
    02:00 +25°C° 0 mm 3 mps 721 mmHg 83%
    03:00 +25°C° 0 mm 3 mps 721 mmHg 84%
    04:00 +25°C° 0 mm 3 mps 721 mmHg 84%
    05:00 +25°C° 0 mm 3 mps 721 mmHg 83%
    06:00 +25°C° 0 mm 4 mps 721 mmHg 81%
    07:00 +26°C° 0 mm 4 mps 722 mmHg 80%
    08:00 +27°C° 0 mm 4 mps 722 mmHg 74%
    09:00 +28°C° 0 mm 4 mps 722 mmHg 68%
    10:00 +29°C° 0 mm 4 mps 723 mmHg 62%
    11:00 +29°C° 0 mm 4 mps 722 mmHg 62%
    12:00 +30°C° 0 mm 5 mps 722 mmHg 62%
    13:00 +30°C° 0 mm 5 mps 722 mmHg 62%
    14:00 +29°C° 0.1 mm 5 mps 721 mmHg 65%
    15:00 +29°C° 0.1 mm 4 mps 721 mmHg 67%
    16:00 +28°C° 0.1 mm 4 mps 721 mmHg 69%
    17:00 +28°C° 0.1 mm 4 mps 721 mmHg 72%
    18:00 +27°C° 0.1 mm 4 mps 721 mmHg 75%
    19:00 +27°C° 0.1 mm 4 mps 722 mmHg 78%
    20:00 +27°C° 0 mm 4 mps 722 mmHg 80%
    21:00 +26°C° 0 mm 3 mps 722 mmHg 81%
    22:00 +26°C° 0 mm 3 mps 723 mmHg 83%
    23:00 +26°C° 0 mm 3 mps 723 mmHg 83%

    14 Diciembre, Sábado

    Tiempo Temperatura Precipitaciones Viento Presión Humedad
    00:00 +25°C° 0 mm 3 mps 722 mmHg 84%
    01:00 +25°C° 0 mm 3 mps 722 mmHg 84%
    02:00 +25°C° 0 mm 3 mps 722 mmHg 83%
    03:00 +25°C° 0 mm 3 mps 722 mmHg 83%
    04:00 +25°C° 0 mm 3 mps 722 mmHg 82%
    05:00 +25°C° 0 mm 3 mps 722 mmHg 81%
    06:00 +25°C° 0 mm 3 mps 723 mmHg 79%
    07:00 +26°C° 0 mm 3 mps 723 mmHg 78%
    08:00 +27°C° 0 mm 3 mps 723 mmHg 72%
    09:00 +28°C° 0 mm 3 mps 723 mmHg 66%
    10:00 +29°C° 0 mm 3 mps 724 mmHg 60%
    11:00 +30°C° 0 mm 3 mps 723 mmHg 60%
    12:00 +30°C° 0 mm 4 mps 723 mmHg 60%
    13:00 +30°C° 0 mm 4 mps 723 mmHg 61%
    14:00 +30°C° 0.2 mm 4 mps 723 mmHg 63%
    15:00 +29°C° 0.2 mm 3 mps 722 mmHg 65%
    16:00 +29°C° 0.2 mm 3 mps 722 mmHg 67%
    17:00 +28°C° 0.3 mm 3 mps 722 mmHg 71%
    18:00 +28°C° 0.3 mm 3 mps 723 mmHg 74%
    19:00 +27°C° 0.3 mm 3 mps 723 mmHg 78%
    20:00 +27°C° 0.1 mm 4 mps 723 mmHg 80%
    21:00 +26°C° 0.1 mm 4 mps 724 mmHg 81%
    22:00 +26°C° 0.1 mm 4 mps 724 mmHg 83%
    23:00 +26°C° 0.1 mm 4 mps 723 mmHg 83%
    Mostrar más